Douglas Bisbee, AZ

6:55 AM MST on November 23, 2017 (GMT -0700)
Bisbee Douglas International

Weather History for KDUG - April, 2013

Change the Weather History Date:

Wednesday, April 10, 2013

  Actual Average Record
Temperature  
Mean Temperature 51 °F 60 °F  
Max Temperature 67 °F 78 °F 89 °F (2002)
Min Temperature 35 °F 42 °F 27 °F (1999)
Degree Days  
Heating Degree Days 14 6  
Month to date heating degree days 51 67  
Since 1 July heating degree days 2494 2428  
Cooling Degree Days 0 0  
Month to date cooling degree days 2 0  
Year to date cooling degree days 4 1  
Moisture  
Dew Point 24 °F    
Average Humidity 46    
Maximum Humidity 75    
Minimum Humidity 16    
Precipitation  
Precipitation 0.00 in 0.01 in 0.07 in (1975)
Month to date precipitation 0.01 0.08  
Year to date precipitation 0.87 1.97  
Snow  
Snow 0.00 in - - ()
Month to date snowfall 0.0  
Snow Depth 0.00 in    
Sea Level Pressure  
Sea Level Pressure 29.90 in    
Wind  
Wind Speed 11 mph (NNW)    
Max Wind Speed 24 mph    
Max Gust Speed 31 mph    
Visibility 10 miles    
Events      
T = Trace of Precipitation, MM = Missing Value Source: NWS Daily Summary

Daily Weather History Graph

Daily Weather History Graph

Search for Another Location

Airport or City:

Trip Planner

Search our weather history database for the weather conditions in past years. The results will help you decide how hot, cold, wet, or windy it might be!

Date:

Astronomy

Apr. 10, 2013 Rise Set
Actual Time 5:55 AM MST 6:44 PM MST
Civil Twilight 5:30 AM MST 7:08 PM MST
Nautical Twilight 5:01 AM MST 7:38 PM MST
Astronomical Twilight 4:31 AM MST 8:07 PM MST
Moon 5:55 AM MST (4/10) 7:18 PM MST (4/10)
Length of Visible Light 13h 37m
Length of Day
12h 48m
New Moon, 0% of the Moon is Illuminated
Apr 10
New Moon
Apr 18
First Quarter
Apr 25
Full
May 2
Last Quarter
May 9
New

Hourly Weather History & Observations

Time (MST) Temp. Windchill Dew Point Humidity Pressure Visibility Wind Dir Wind Speed Gust Speed Precip Events Conditions
12:56 AM 39.9 °F 35.1 °F 30.0 °F 68% 29.88 in 10.0 mi ESE 6.9 mph - N/A   Clear
1:56 AM 37.9 °F 32.1 °F 28.9 °F 70% 29.88 in 10.0 mi ESE 8.1 mph - N/A   Clear
2:56 AM 36.0 °F 30.3 °F 28.0 °F 73% 29.89 in 10.0 mi SE 6.9 mph - N/A   Clear
3:56 AM 36.0 °F 29.0 °F 28.0 °F 73% 29.88 in 10.0 mi ESE 9.2 mph - N/A   Clear
4:56 AM 36.0 °F 29.6 °F 28.0 °F 73% 29.90 in 10.0 mi East 8.1 mph - N/A   Clear
5:56 AM 35.1 °F 28.6 °F 28.0 °F 76% 29.91 in 10.0 mi ESE 8.1 mph - N/A   Clear
6:56 AM 39.9 °F 37.8 °F 30.0 °F 68% 29.93 in 10.0 mi SE 3.5 mph - N/A   Clear
7:56 AM 46.4 °F 43.5 °F 30.2 °F 53% 30.01 in 10.0 mi South 5.8 mph - N/A   Clear
8:56 AM 50.0 °F - 28.9 °F 44% 29.94 in 10.0 mi Variable 3.5 mph - N/A   Clear
9:56 AM 55.0 °F - 23.0 °F 29% 29.91 in 10.0 mi SW 6.9 mph - N/A   Clear
10:56 AM 57.0 °F - 21.0 °F 25% 29.91 in 10.0 mi Variable 5.8 mph 19.6 mph N/A   Partly Cloudy
11:56 AM 62.1 °F - 19.9 °F 20% 29.88 in 10.0 mi NW 13.8 mph 18.4 mph N/A   Partly Cloudy
12:56 PM 63.0 °F - 19.0 °F 18% 29.86 in 10.0 mi WNW 12.7 mph 23.0 mph N/A   Overcast
1:56 PM 64.0 °F - 18.0 °F 17% 29.85 in 10.0 mi West 15.0 mph 23.0 mph N/A   Scattered Clouds
2:56 PM 64.9 °F - 17.1 °F 16% 29.82 in 10.0 mi NW 16.1 mph 20.7 mph N/A   Clear
3:56 PM 66.0 °F - 19.0 °F 17% 29.81 in 10.0 mi West 12.7 mph 26.5 mph N/A   Partly Cloudy
4:56 PM 64.0 °F - 23.0 °F 21% 29.83 in 10.0 mi NW 21.9 mph 28.8 mph N/A   Clear
5:56 PM 61.0 °F - 21.0 °F 21% 29.85 in 10.0 mi NNW 21.9 mph 29.9 mph N/A   Clear
6:56 PM 57.0 °F - 19.9 °F 24% 29.87 in 10.0 mi NW 16.1 mph - N/A   Clear
7:56 PM 54.0 °F - 19.9 °F 26% 29.91 in 10.0 mi NW 15.0 mph - N/A   Clear
8:56 PM 50.0 °F - 19.0 °F 29% 29.94 in 10.0 mi North 11.5 mph - N/A   Clear
9:56 PM 48.9 °F - 21.9 °F 35% 29.95 in 10.0 mi NW 10.4 mph - N/A   Clear
10:56 PM 46.9 °F - 23.0 °F 39% 29.95 in 10.0 mi North 6.9 mph - N/A   Clear
11:56 PM 44.1 °F 39.5 °F 21.0 °F 40% 29.95 in 10.0 mi North 8.1 mph - N/A   Clear